Disclaimer

Please do not use the information listed here in-flight or in-navigation, as they are not provided to us by the airports but are provided by volunteers, so they might be outdated.

Search


Regions


Airport information page

Radio informations:
METEO INFO - 124.8 MHz
Approach/Tower (APP/TWR) - 129.4 MHz

Airport informations:
Latitude: 56° 31' 03.00" N
Longitude: 021° 05' 49.00" E
Elevation: 16 feet - 5 meters
Operating hours: Remarks
Operating agency: Civil government, landing fees and diplomatic clearance may be required
Timezone: UTC+2(+3DT) - Last Sunday in March to last Sunday in September
Fuel: Jet A1, without icing nhibitor.

100/130 MIL Spec, low lead, aviation gasoline (BLUE)

Runway information:
07/25 - 6568 x 131 feet< - >2002 x 40 meters

Recent METARs:
EVLA 152220Z AUTO 32003KT 280V350 9999 FEW030/// SCT054/// OVC066/// 00/M04 Q0994
EVLA 152250Z AUTO 32003KT 270V010 9999 SNRA SCT029/// BKN043/// OVC066/// 00/M03 Q0994
EVLA 152320Z AUTO 30003KT 280V340 9999 FEW029/// SCT060/// OVC084/// 01/M04 Q0994

Airport on the map: